Find OneWeb SL0113

NORAD ID: 48050 Int'l Des: 2021-025 Owner: ONEWEBN Country: UK Constellation: oneweb operational
LEOCIRCULARPOLARONEWEB_TYPE

实时位置

正在加载3D地球...

关于 OneWeb SL0113

正在加载描述...

即将过境

Passes for default location (London). Set your location on the main map for personalized predictions.

高度历史

Loading altitude history...

两行轨道根数

1 48050U 21025J 26125.06535007 -.00003576 00000-0 -97680-2 0 9994
2 48050 87.8962 328.7326 0001847 87.2544 272.8797 13.13916051247948
Epoch: May 5, 2026 • Age: 14 hours

当前状态

高度 1235.4 km
速度 7.24 km/s
星下点 -69.18°S, 56.22°E
发射日期 Mar 25, 2021
运行时间 5.1 years
类型 internet

技术详情

分类 Payload
质量 148.00 kg
干质量 140.00 kg
总质量 148.00 kg
长度 1.30 m
直径 1.00 m
跨度 5.00 m
形状 Trapezoid+2 pan
制造商 ONEWUS
平台类型 ARROW
阶段状态 In Orbit
所有者/国家 ONEWEBN/UK

Most Searched